Location: Table Mountain
(47.2500°N, 120.5778°W)
Time: 11:47:18
(UTC-07:00)

Vanguard 1 - All Passes

Search period start: 23 October 2017 00:00
Search period end: 02 November 2017 00:00
Orbit: 650 x 3834 km, 34.3° (Epoch: 23 October)

Date Brightness Start Highest point End Pass type
(mag) Time Alt. Az. Time Alt. Az. Time Alt. Az.
23 Oct - 01:22:45 10° SW 01:34:55 48° SSE 01:54:40 10° E visible
23 Oct - 03:42:40 10° WSW 03:58:32 53° S 04:20:40 10° ESE visible
23 Oct - 06:05:10 10° W 06:22:53 39° SSW 06:42:43 10° SSE visible
23 Oct - 08:33:54 10° W 08:45:20 16° SW 08:56:31 10° SSW daylight
23 Oct - 23:25:51 10° SSW 23:34:38 30° SE 23:48:26 10° E visible
24 Oct - 01:43:21 10° WSW 01:55:50 51° SSE 02:16:07 10° ESE visible
24 Oct - 04:03:40 10° W 04:19:40 51° SSW 04:41:33 10° SE visible
24 Oct - 06:26:47 10° W 06:43:42 33° SW 07:02:22 10° SSE visible
24 Oct - 09:01:26 10° WSW 09:05:36 11° SW 09:09:44 10° SW daylight
24 Oct - 23:45:51 10° SSW 23:55:05 35° SSE 00:10:14 10° E visible
25 Oct - 02:04:04 10° WSW 02:16:50 52° S 02:37:28 10° ESE visible
25 Oct - 04:24:45 10° W 04:40:47 47° SSW 05:02:11 10° SE visible
25 Oct - 06:48:46 10° W 07:04:25 27° SW 07:21:27 10° S visible
25 Oct - 21:51:44 10° SSE 21:56:30 15° SE 22:02:36 10° ESE night (unlit)
26 Oct - 00:06:05 10° SW 00:15:41 40° SSE 00:31:53 10° E visible
26 Oct - 02:24:51 10° WSW 02:37:54 52° S 02:58:42 10° ESE visible
26 Oct - 04:45:58 10° W 05:01:50 42° SSW 05:22:33 10° SE visible
26 Oct - 07:11:20 10° W 07:25:03 21° SW 07:39:45 10° S visible
26 Oct - 22:10:32 10° S 22:16:40 20° SE 22:25:22 10° E night (unlit)
27 Oct - 00:26:31 10° SW 00:36:25 44° SSE 00:53:25 10° E visible
27 Oct - 02:45:44 10° WSW 02:58:59 51° S 03:19:47 10° ESE visible
27 Oct - 05:07:19 10° W 05:22:49 37° SSW 05:42:33 10° SSE visible
27 Oct - 07:35:05 10° WSW 07:45:35 16° SW 07:56:40 10° SSW daylight
27 Oct - 22:30:05 10° SSW 22:36:57 25° SE 22:47:29 10° E night (unlit)
28 Oct - 00:47:05 10° WSW 00:57:15 47° SSE 01:14:51 10° ESE visible
28 Oct - 03:06:41 10° W 03:20:06 48° SSW 03:40:41 10° SE visible
28 Oct - 05:28:54 10° W 05:43:44 31° SSW 06:02:08 10° SSE visible
28 Oct - 08:04:09 10° WSW 08:06:05 10° SW 08:08:02 10° SW daylight
28 Oct - 22:50:02 10° SSW 22:57:22 31° SSE 23:09:17 10° E night (unlit)
29 Oct - 01:07:45 10° WSW 01:18:11 48° S 01:36:13 10° ESE visible
29 Oct - 03:27:44 10° W 03:41:11 44° SSW 04:01:19 10° SE visible
29 Oct - 05:50:51 10° W 06:04:35 25° SW 06:21:05 10° S visible
29 Oct - 20:57:34 10° SE 20:59:18 11° SE 21:01:12 10° ESE night (unlit)
29 Oct - 23:10:15 10° SW 23:17:55 36° SSE 23:30:53 10° E night (unlit)
30 Oct - 01:28:31 10° WSW 01:39:10 48° S 01:57:26 10° ESE visible
30 Oct - 03:48:53 10° W 04:02:15 39° SSW 04:21:40 10° SE visible
30 Oct - 06:13:28 10° WSW 06:25:21 20° SW 06:39:09 10° S visible
30 Oct - 21:15:18 10° S 21:19:29 16° SE 21:24:57 10° ESE night (unlit)
30 Oct - 23:30:39 10° SW 23:38:37 40° SSE 23:52:23 10° E visible
31 Oct - 01:49:21 10° WSW 02:00:12 46° S 02:18:31 10° ESE visible
31 Oct - 04:10:13 10° W 04:23:17 34° SSW 04:41:37 10° SSE visible
31 Oct - 06:37:33 10° WSW 06:46:04 14° SW 06:55:31 10° SSW visible
31 Oct - 21:34:39 10° S 21:39:47 21° SE 21:47:11 10° E night (unlit)
31 Oct - 23:51:12 10° SW 23:59:24 42° SSE 00:13:46 10° ESE visible
01 Nov - 02:10:16 10° WSW 02:21:15 43° S 02:39:23 10° SE visible
01 Nov - 04:31:48 10° W 04:44:15 28° SSW 05:01:04 10° SSE visible
01 Nov - 21:54:30 10° SSW 22:00:13 26° SSE 22:08:57 10° E night (unlit)
